• Join FlightAware (Why Join?)
  • Login
  • US Flag 
09:44PM EST


 

Airport Tracker/Info


-or-


 

Live Flight TrackerFlight Track Log ✈ SWA2322 ✈ 18-Apr-2013 ✈ KCHS - KBWI

Flight Track Log - Related Links

Times and Time Zones

All times are in EDT time to prevent confusion due to time zone crossing. See the SWA2322 flight status page for this flight to view local times or setup timezone preferences in your user account.

Time Position Orientation Groundspeed Altitude Reporting Facility
EDT Latitude Longitude Course Direction KTS MPH feet Rate Location/Type
09:10AM 32.9811 -80.0003 North 262 302 4,300  Level Jacksonville Center
09:11AM 33.0533 -79.9658 22° Northeast 276 318 8,100 3,450 Climbing Jacksonville Center
09:12AM 33.1236 -79.9336 21° North 289 333 11,200 3,450 Climbing Jacksonville Center
09:13AM 33.1997 -79.8939 24° Northeast 294 338 15,000 3,550 Climbing Jacksonville Center
09:14AM 33.2822 -79.8464 26° Northeast 304 350 18,300 2,300 Climbing Jacksonville Center
09:15AM 33.4251 -79.8716 North  Level FlightAware Approximate
09:15AM 33.3747 -79.7886 28° Northeast 333 383 19,600  Level Jacksonville Center
09:16AM 33.4728 -79.7103 34° Northeast 382 440 22,300 2,000 Climbing Jacksonville Center
09:17AM 33.5753 -79.6319 32° Northeast 416 479 23,600 1,900 Climbing Jacksonville Center
09:18AM 33.6794 -79.5531 32° Northeast 428 493 26,100 2,250 Climbing Jacksonville Center
09:19AM 33.7858 -79.4692 33° Northeast 438 504 28,100 1,850 Climbing Jacksonville Center
09:20AM 33.9022 -79.3797 33° Northeast 450 518 29,800 1,850 Climbing Jacksonville Center
09:21AM 34.0167 -79.2922 32° Northeast 464 534 31,800 2,050 Climbing Jacksonville Center
09:22AM 34.1267 -79.2050 33° Northeast 475 547 33,900 980 Climbing Jacksonville Center
09:24AM 34.3669 -79.0136 33° Northeast 490 564 35,000 337 Climbing Washington Center
09:25AM 34.4781 -78.9275 33° Northeast 476 548 35,000  Level Washington Center
09:26AM 34.5847 -78.8361 35° Northeast 476 548 35,000  Level Washington Center
09:27AM 34.6975 -78.7572 30° Northeast 476 548 35,000  Level Washington Center
09:28AM 34.8181 -78.6986 22° Northeast 469 540 35,000 900 Level Washington Center
09:29AM 34.9383 -78.6400 22° Northeast 464 534 36,800 1,650 Climbing Washington Center
09:30AM 35.0567 -78.5808 22° Northeast 459 528 38,300 1,550 Climbing Washington Center
09:31AM 35.1731 -78.5217 23° Northeast 459 528 39,900 1,250 Climbing Washington Center
09:32AM 35.2892 -78.4625 23° Northeast 454 522 40,800 550 Climbing Washington Center
09:33AM 35.4097 -78.3953 24° Northeast 454 522 41,000 100 Climbing Washington Center
09:34AM 35.5489 -78.3286 21° North 477 549 41,000  Level Washington Center
09:35AM 35.6669 -78.2739 21° North 477 549 41,000  Level Washington Center
09:36AM 35.7894 -78.2114 22° Northeast 471 542 41,000 -800 Level Washington Center
09:37AM 35.9075 -78.1539 22° Northeast 465 535 39,400 -6,000 Descending Washington Center
09:38AM 36.0236 -78.0961 22° Northeast 450 518 29,000 -2,500 Descending Washington Center
09:39AM 36.1417 -78.0356 22° Northeast 450 518 34,400 1,600 Climbing Washington Center
09:40AM 36.2533 -77.9772 23° Northeast 444 511 32,200 -2,150 Descending Washington Center
09:41AM 36.3631 -77.9211 22° Northeast 434 499 30,100 -1,600 Descending Washington Center
09:42AM 36.4556 -77.8722 23° Northeast 418 481 29,000 -550 Descending Washington Center
09:43AM 36.5653 -77.8133 23° Northeast 418 481 29,000 -250 Level Washington Center
09:44AM 36.6831 -77.7544 22° Northeast 425 489 28,500 -950 Descending Washington Center
09:45AM 36.8033 -77.6906 23° Northeast 452 520 27,100 -750 Descending Washington Center
09:46AM 36.9275 -77.6236 23° Northeast 466 536 27,000 -50 Descending Washington Center
09:47AM 37.0494 -77.5619 22° Northeast 466 536 27,000  Level Washington Center
09:48AM 37.1717 -77.4972 23° Northeast 471 542 27,000  Level Washington Center
09:49AM 37.2956 -77.4325 23° Northeast 476 548 27,000 -800 Level Washington Center
09:50AM 37.4178 -77.3647 24° Northeast 481 554 25,400 -2,000 Descending Washington Center
09:51AM 37.5436 -77.3100 19° North 481 554 23,000 -1,200 Descending Washington Center
09:52AM 37.6711 -77.2842 North 466 536 23,000  Level Washington Center
09:53AM 37.8008 -77.2581 North 461 531 23,000  Level Washington Center
09:54AM 37.9306 -77.2319 North 467 537 23,000  Level Washington Center
09:55AM 38.0581 -77.2083 North 467 537 23,000 -1,250 Level Washington Center
09:56AM 38.1814 -77.1819 10° North 461 531 20,500 -2,750 Descending Washington Center
09:57AM 38.2986 -77.1528 11° North 444 511 17,500 -2,700 Descending Washington Center
09:58AM 38.4056 -77.1150 15° North 409 471 15,100 -2,150 Descending Washington Center
09:59AM 38.4817 -77.0186 45° Northeast 377 434 13,200 -1,850 Descending Washington Center
10:00AM 38.5578 -76.9244 44° Northeast 377 434 11,400 -1,500 Descending Washington Center
10:01AM 38.6361 -76.8275 44° Northeast 361 415 10,200 -1,150 Descending Washington Center
10:02AM 38.6972 -76.7514 44° Northeast 333 383 9,100 -1,350 Descending Washington Center
10:03AM 38.7397 -76.6617 59° Northeast 301 346 7,500 -1,576 Descending Washington Center
10:04AM 38.7667 -76.6000 61° Northeast 296 341 6,500 -1,030 Descending Potomac TRACON
10:05AM 38.8167 -76.5333 46° Northeast 279 321 5,800 -850 Descending Potomac TRACON
10:06AM 38.8833 -76.5500 349° North 243 280 4,800 -900 Descending Potomac TRACON
10:07AM 38.9500 -76.5833 339° North 245 282 4,000 -397 Descending Potomac TRACON
10:08AM 38.9833 -76.6333 311° West 224 258 4,000  Level Potomac TRACON
10:09AM 39.0167 -76.7000 303° West 209 241 4,000 -300 Level Potomac TRACON
10:10AM 39.0500 -76.7667 303° West 212 244 3,400 -500 Descending Potomac TRACON
10:11AM 39.0833 -76.8333 303° West 212 244 3,000 -200 Descending Potomac TRACON
10:12AM 39.1000 -76.9000 288° West 207 238 3,000 -250 Level Potomac TRACON
10:13AM 39.1500 -76.9333 333° Northwest 208 239 2,500 -500 Descending Potomac TRACON
10:14AM 39.1833 -76.9000 38° Northeast 180 207 2,000 -500 Descending Potomac TRACON
10:15AM 39.1833 -76.8333 90° East 167 192 1,500 -250 Descending Potomac TRACON
10:16AM 39.1833 -76.7833 90° East 163 188 1,500 -350 Level Potomac TRACON
10:17AM 39.1833 -76.7333 90° East 125 144 800 -700 Descending Potomac TRACON
10:19AM 39.1667 -76.6667 84° East  Level FlightAware Approximate